Weather History for Thermal, CA

Change the Weather History Date:

Thursday, April 25, 2013

  Actual Average Record
Temperature  
Mean Temperature 76 °F 73 °F  
Max Temperature 88 °F 90 °F 107 °F (1996)
Min Temperature 64 °F 56 °F 47 °F (1988)
Degree Days  
Heating Degree Days 0 0  
Month to date heating degree days 2 19  
Since 1 July heating degree days 1124 1176  
Cooling Degree Days 11 8  
Month to date cooling degree days 178 139  
Year to date cooling degree days 340 213  
Growing Degree Days 26 (Base 50)    
Moisture  
Dew Point 44 °F    
Average Humidity 35    
Maximum Humidity 52    
Minimum Humidity 18    
Precipitation  
Precipitation 0.00 in 0.01 in 0.09 in (1951)
Month to date precipitation 0.00 0.06  
Year to date precipitation 0.44 1.77  
Since 1 July precipitation 2.62 3.15  
Snow  
Snow 0.00 in - - ()
Month to date snowfall 0.0  
Year to date snowfall 0.0  
Since 1 July snowfall 0.0  
Snow Depth 0.00 in    
Sea Level Pressure  
Sea Level Pressure 29.85 in    
Wind  
Wind Speed 15 mph (NNW)    
Max Wind Speed 26 mph    
Max Gust Speed 35 mph    
Visibility 10 miles    
Events      
T = Trace of Precipitation, MM = Missing Value Source: NWS Daily Summary

Daily Weather History Graph

Daily Weather History Graph

Search for Another Location

Airport:

Trip Planner

Search our weather history database for the weather conditions in past years. The results will help you decide how hot, cold, wet, or windy it might be!

Date:

Astronomy

Apr. 25, 2013 Rise Set
Actual Time 6:02 AM PDT 7:23 PM PDT
Civil Twilight 5:35 AM PDT 7:49 PM PDT
Nautical Twilight 5:04 AM PDT 8:21 PM PDT
Astronomical Twilight 4:32 AM PDT 8:53 PM PDT
Moon 7:40 PM PDT (4/25) 5:48 AM PDT (4/25)
Length of Visible Light 14h 13m
Length of Day
13h 21m
Full, 100% of the Moon is Illuminated
Apr 25
Full
Apr 25
Full
May 2
Last Quarter
May 9
New
May 17
First Quarter

Hourly Weather History & Observations

Time (PDT) Temp. Dew Point Humidity Pressure Visibility Wind Dir Wind Speed Gust Speed Precip Events Conditions
12:52 AM 66.0 °F 48.0 °F 52% 29.76 in 9.0 mi NNW 18.4 mph 27.6 mph N/A   Clear
1:52 AM 66.0 °F 46.9 °F 50% 29.78 in 8.0 mi NNW 20.7 mph 29.9 mph N/A   Clear
2:52 AM 66.0 °F 45.0 °F 47% 29.75 in 10.0 mi NNW 21.9 mph 29.9 mph N/A   Clear
3:52 AM 64.9 °F 45.0 °F 48% 29.76 in 10.0 mi NNW 23.0 mph 28.8 mph N/A   Clear
4:52 AM 64.9 °F 45.0 °F 48% 29.81 in 10.0 mi NNW 17.3 mph 27.6 mph N/A   Clear
5:52 AM 64.0 °F 45.0 °F 50% 29.80 in 10.0 mi NNW 21.9 mph 27.6 mph N/A   Clear
6:52 AM 64.9 °F 45.0 °F 48% 29.83 in 10.0 mi NNW 13.8 mph - N/A   Clear
7:52 AM 68.0 °F 44.1 °F 42% 29.84 in 10.0 mi NNW 18.4 mph 26.5 mph N/A   Clear
8:52 AM 72.0 °F 44.1 °F 37% 29.86 in 6.0 mi NNW 19.6 mph 27.6 mph N/A   Haze
9:52 AM 75.0 °F 44.1 °F 33% 29.88 in 8.0 mi NW 17.3 mph 24.2 mph N/A   Clear
10:52 AM 79.0 °F 43.0 °F 28% 29.88 in 7.0 mi NNW 15.0 mph - N/A   Clear
11:52 AM 82.0 °F 42.1 °F 24% 29.88 in 10.0 mi NW 13.8 mph 20.7 mph N/A   Clear
12:52 PM 82.9 °F 41.0 °F 23% 29.87 in 10.0 mi NW 8.1 mph - N/A   Clear
1:52 PM 84.0 °F 39.9 °F 21% 29.86 in 10.0 mi Variable 5.8 mph - N/A   Clear
2:52 PM 87.1 °F 39.9 °F 19% 29.85 in 10.0 mi NW 6.9 mph - N/A   Clear
3:52 PM 86.0 °F 39.9 °F 20% 29.84 in 10.0 mi Variable 6.9 mph - N/A   Clear
4:52 PM 86.0 °F 41.0 °F 20% 29.84 in 10.0 mi NNW 10.4 mph - N/A   Clear
5:52 PM 84.0 °F 42.1 °F 23% 29.85 in 10.0 mi NW 11.5 mph - N/A   Clear
6:52 PM 81.0 °F 43.0 °F 26% 29.85 in 10.0 mi NNW 13.8 mph - N/A   Clear
7:52 PM 77.0 °F 45.0 °F 32% 29.87 in 10.0 mi NNW 15.0 mph - N/A   Clear
8:52 PM 75.0 °F 45.0 °F 34% 29.90 in 10.0 mi NNW 13.8 mph - N/A   Clear
9:52 PM 73.9 °F 45.0 °F 35% 29.93 in 10.0 mi NNW 13.8 mph - N/A   Clear
10:52 PM 72.0 °F 46.0 °F 40% 29.94 in 10.0 mi NW 9.2 mph - N/A   Clear
11:52 PM 71.1 °F 46.0 °F 41% 29.95 in 10.0 mi NNW 12.7 mph - N/A   Clear